Wetterdaten: Woche 05.03.18 - 11.03.18 (KW10)
Datum Zeit Temperatur Luftfeuchte Luftdruck Niederschlag Windrichtung Sonnenschein Solar Wind
05.03.2018 00:00 1,7 C 94 % 998,4 hPa 0,0 l/m N 0,00 h 0 W/m 0,5 km/h (0 Bft)
05.03.2018 01:00 1,9 C 95 % 998,6 hPa 0,0 l/m N 0,00 h 0 W/m 3,1 km/h (1 Bft)
05.03.2018 02:00 2,2 C 95 % 998,8 hPa 0,0 l/m N 0,00 h 0 W/m 0,5 km/h (0 Bft)
05.03.2018 03:00 1,7 C 95 % 998,6 hPa 0,0 l/m N 0,00 h 0 W/m 0,0 km/h (0 Bft)
05.03.2018 04:00 1,4 C 95 % 998,3 hPa 0,0 l/m N-NW 0,00 h 0 W/m 1,1 km/h (0 Bft)
05.03.2018 05:00 1,7 C 96 % 998,1 hPa 0,0 l/m N-NW 0,00 h 0 W/m 1,7 km/h (1 Bft)
05.03.2018 06:00 1,5 C 96 % 997,8 hPa 0,0 l/m N 0,00 h 0 W/m 0,0 km/h (0 Bft)
05.03.2018 07:00 1,1 C 97 % 997,5 hPa 0,0 l/m N 0,00 h 39 W/m 0,0 km/h (0 Bft)
05.03.2018 08:00 2,0 C 97 % 997,2 hPa 0,0 l/m N-NW 0,25 h 131 W/m 1,5 km/h (1 Bft)
05.03.2018 09:00 3,1 C 96 % 996,9 hPa 0,0 l/m N-NW 0,58 h 245 W/m 1,3 km/h (1 Bft)
05.03.2018 10:00 5,1 C 90 % 996,4 hPa 0,0 l/m NO 1,00 h 464 W/m 7,9 km/h (2 Bft)
05.03.2018 11:00 7,3 C 82 % 995,8 hPa 0,0 l/m NO 1,00 h 570 W/m 11,8 km/h (2 Bft)
05.03.2018 12:00 9,0 C 74 % 994,8 hPa 0,0 l/m O-NO 1,00 h 584 W/m 17,3 km/h (3 Bft)
05.03.2018 13:00 9,3 C 72 % 993,7 hPa 0,0 l/m NO 1,00 h 524 W/m 16,8 km/h (3 Bft)
05.03.2018 14:00 9,5 C 70 % 993,0 hPa 0,0 l/m O-NO 1,00 h 389 W/m 15,3 km/h (3 Bft)
05.03.2018 15:00 9,3 C 70 % 992,4 hPa 0,0 l/m O-NO 1,00 h 260 W/m 14,9 km/h (3 Bft)
05.03.2018 16:00 8,4 C 73 % 992,0 hPa 0,0 l/m O-NO 0,25 h 141 W/m 10,7 km/h (2 Bft)
05.03.2018 17:00 7,4 C 76 % 991,9 hPa 0,0 l/m O-NO 0,00 h 47 W/m 4,8 km/h (1 Bft)
05.03.2018 18:00 6,1 C 79 % 991,7 hPa 0,0 l/m N 0,08 h 6 W/m 0,4 km/h (0 Bft)
05.03.2018 19:00 4,6 C 83 % 991,5 hPa 0,0 l/m N 0,00 h 0 W/m 1,1 km/h (0 Bft)
05.03.2018 20:00 3,5 C 87 % 991,2 hPa 0,0 l/m N 0,00 h 0 W/m 1,9 km/h (1 Bft)
05.03.2018 21:00 2,8 C 89 % 991,1 hPa 0,0 l/m N 0,00 h 0 W/m 2,8 km/h (1 Bft)
05.03.2018 22:00 2,2 C 91 % 991,0 hPa 0,0 l/m O-NO 0,00 h 0 W/m 4,8 km/h (1 Bft)
05.03.2018 23:00 1,4 C 91 % 990,9 hPa 0,0 l/m NO 0,00 h 0 W/m 4,8 km/h (1 Bft)
06.03.2018 00:00 0,8 C 92 % 990,7 hPa 0,0 l/m N 0,00 h 0 W/m 2,4 km/h (1 Bft)
06.03.2018 01:00 0,1 C 92 % 990,7 hPa 0,0 l/m N 0,00 h 0 W/m 0,0 km/h (0 Bft)
06.03.2018 02:00 -0,3 C 92 % 990,6 hPa 0,0 l/m N 0,00 h 0 W/m 0,3 km/h (0 Bft)
06.03.2018 03:00 -0,6 C 93 % 990,2 hPa 0,0 l/m N 0,00 h 0 W/m 0,8 km/h (0 Bft)
06.03.2018 04:00 -0,8 C 93 % 990,1 hPa 0,0 l/m N 0,00 h 0 W/m 0,0 km/h (0 Bft)
06.03.2018 05:00 -1,0 C 94 % 989,9 hPa 0,0 l/m N 0,00 h 0 W/m 0,4 km/h (0 Bft)
06.03.2018 06:00 -1,2 C 94 % 989,7 hPa 0,0 l/m N 0,00 h 0 W/m 0,0 km/h (0 Bft)
06.03.2018 07:00 -1,3 C 95 % 990,0 hPa 0,0 l/m N 0,00 h 29 W/m 0,0 km/h (0 Bft)
06.03.2018 08:00 -0,9 C 95 % 990,5 hPa 0,0 l/m N 0,00 h 83 W/m 0,0 km/h (0 Bft)
06.03.2018 09:00 0,3 C 95 % 990,7 hPa 0,0 l/m N 0,00 h 189 W/m 0,0 km/h (0 Bft)
06.03.2018 10:00 1,5 C 92 % 990,6 hPa 0,0 l/m O 0,08 h 254 W/m 4,0 km/h (1 Bft)
06.03.2018 11:00 2,6 C 90 % 990,6 hPa 0,0 l/m S-SW 0,00 h 267 W/m 10,2 km/h (2 Bft)
06.03.2018 12:00 3,6 C 89 % 990,5 hPa 0,0 l/m SW 0,00 h 273 W/m 9,8 km/h (2 Bft)
06.03.2018 13:00 5,1 C 87 % 990,2 hPa 0,0 l/m S-SW 0,00 h 286 W/m 10,1 km/h (2 Bft)
06.03.2018 14:00 6,3 C 86 % 990,2 hPa 0,0 l/m S-SW 0,17 h 262 W/m 10,8 km/h (2 Bft)
06.03.2018 15:00 7,4 C 80 % 990,3 hPa 0,0 l/m W-SW 0,33 h 219 W/m 14,1 km/h (3 Bft)
06.03.2018 16:00 7,7 C 80 % 990,2 hPa 0,0 l/m W-SW 0,00 h 141 W/m 12,0 km/h (2 Bft)
06.03.2018 17:00 7,3 C 83 % 990,6 hPa 0,0 l/m SW 0,08 h 53 W/m 6,3 km/h (2 Bft)
06.03.2018 18:00 6,7 C 85 % 991,1 hPa 0,0 l/m W-SW 0,08 h 13 W/m 10,5 km/h (2 Bft)
06.03.2018 19:00 5,9 C 86 % 991,7 hPa 0,0 l/m SW 0,00 h 0 W/m 5,2 km/h (1 Bft)
06.03.2018 20:00 4,4 C 88 % 992,1 hPa 0,0 l/m N 0,00 h 0 W/m 1,1 km/h (0 Bft)
06.03.2018 21:00 3,3 C 90 % 992,6 hPa 0,0 l/m N 0,00 h 0 W/m 0,4 km/h (0 Bft)
06.03.2018 22:00 3,0 C 93 % 992,8 hPa 0,0 l/m SW 0,00 h 0 W/m 1,6 km/h (1 Bft)
06.03.2018 23:00 3,4 C 94 % 993,1 hPa 0,0 l/m S-SW 0,00 h 0 W/m 3,9 km/h (1 Bft)
07.03.2018 00:00 3,4 C 95 % 993,4 hPa 0,0 l/m N 0,00 h 0 W/m 1,3 km/h (1 Bft)
07.03.2018 01:00 3,3 C 96 % 993,7 hPa 0,2 l/m SW 0,00 h 0 W/m 2,0 km/h (1 Bft)
07.03.2018 02:00 3,6 C 96 % 993,8 hPa 0,0 l/m SW 0,00 h 0 W/m 4,3 km/h (1 Bft)
07.03.2018 03:00 3,4 C 96 % 993,6 hPa 0,0 l/m SW 0,00 h 0 W/m 2,1 km/h (1 Bft)
07.03.2018 04:00 3,4 C 97 % 994,0 hPa 0,0 l/m W-SW 0,00 h 0 W/m 5,2 km/h (1 Bft)
07.03.2018 05:00 3,4 C 97 % 994,4 hPa 0,0 l/m W-SW 0,00 h 0 W/m 6,7 km/h (2 Bft)
07.03.2018 06:00 3,3 C 96 % 994,7 hPa 0,0 l/m W 0,00 h 0 W/m 9,4 km/h (2 Bft)
07.03.2018 07:00 3,3 C 96 % 995,3 hPa 0,0 l/m W-SW 0,00 h 13 W/m 13,6 km/h (3 Bft)
07.03.2018 08:00 3,9 C 94 % 996,1 hPa 0,0 l/m W-SW 0,17 h 107 W/m 16,1 km/h (3 Bft)
07.03.2018 09:00 5,3 C 86 % 996,7 hPa 0,0 l/m W-SW 0,83 h 380 W/m 20,6 km/h (4 Bft)
07.03.2018 10:00 6,2 C 75 % 997,2 hPa 0,0 l/m W-SW 0,75 h 397 W/m 20,5 km/h (4 Bft)
07.03.2018 11:00 7,1 C 72 % 997,6 hPa 0,0 l/m W-SW 0,75 h 454 W/m 20,6 km/h (4 Bft)
07.03.2018 12:00 6,3 C 73 % 998,1 hPa 0,0 l/m W-SW 0,00 h 183 W/m 22,4 km/h (4 Bft)
07.03.2018 13:00 6,4 C 74 % 998,1 hPa 0,0 l/m W-SW 0,17 h 258 W/m 24,5 km/h (4 Bft)
07.03.2018 14:00 6,2 C 73 % 998,4 hPa 0,0 l/m W-SW 0,00 h 164 W/m 20,4 km/h (4 Bft)
07.03.2018 15:00 6,1 C 74 % 998,6 hPa 0,0 l/m W-SW 0,08 h 131 W/m 17,7 km/h (3 Bft)
07.03.2018 16:00 5,4 C 78 % 998,8 hPa 0,2 l/m SW 0,25 h 103 W/m 21,7 km/h (4 Bft)
07.03.2018 17:00 3,6 C 90 % 999,2 hPa 0,0 l/m SW 0,08 h 53 W/m 13,0 km/h (3 Bft)
07.03.2018 18:00 3,3 C 91 % 1000,2 hPa 0,0 l/m SW 0,00 h 8 W/m 10,9 km/h (2 Bft)
07.03.2018 19:00 2,7 C 91 % 1001,3 hPa 0,0 l/m SW 0,00 h 0 W/m 11,4 km/h (2 Bft)
07.03.2018 20:00 2,2 C 92 % 1001,8 hPa 0,0 l/m SW 0,00 h 0 W/m 14,0 km/h (3 Bft)
07.03.2018 21:00 1,9 C 93 % 1002,5 hPa 0,0 l/m SW 0,00 h 0 W/m 13,0 km/h (3 Bft)
07.03.2018 22:00 1,2 C 93 % 1003,3 hPa 0,0 l/m SW 0,00 h 0 W/m 11,6 km/h (2 Bft)
07.03.2018 23:00 1,1 C 95 % 1004,1 hPa 0,0 l/m SW 0,00 h 0 W/m 14,6 km/h (3 Bft)
08.03.2018 00:00 1,8 C 95 % 1004,5 hPa 0,0 l/m W-SW 0,00 h 0 W/m 18,9 km/h (3 Bft)
08.03.2018 01:00 2,2 C 94 % 1005,0 hPa 0,2 l/m W-SW 0,00 h 0 W/m 20,1 km/h (4 Bft)
08.03.2018 02:00 2,0 C 94 % 1005,3 hPa 0,0 l/m SW 0,00 h 0 W/m 15,7 km/h (3 Bft)
08.03.2018 03:00 2,1 C 95 % 1005,6 hPa 0,0 l/m W-SW 0,00 h 0 W/m 18,8 km/h (3 Bft)
08.03.2018 04:00 2,3 C 94 % 1006,0 hPa 0,0 l/m W-SW 0,00 h 0 W/m 20,8 km/h (4 Bft)
08.03.2018 05:00 2,1 C 93 % 1006,5 hPa 0,0 l/m W-SW 0,00 h 0 W/m 18,5 km/h (3 Bft)
08.03.2018 06:00 1,6 C 93 % 1006,8 hPa 0,0 l/m W-SW 0,00 h 7 W/m 18,0 km/h (3 Bft)
08.03.2018 07:00 1,2 C 94 % 1007,1 hPa 0,0 l/m SW 0,25 h 40 W/m 12,8 km/h (3 Bft)
08.03.2018 08:00 1,8 C 95 % 1007,5 hPa 0,0 l/m SW 0,50 h 142 W/m 13,4 km/h (3 Bft)
08.03.2018 09:00 3,0 C 93 % 1007,6 hPa 0,0 l/m SW 0,50 h 285 W/m 14,2 km/h (3 Bft)
08.03.2018 10:00 5,4 C 86 % 1007,4 hPa 0,0 l/m SW 0,92 h 523 W/m 16,6 km/h (3 Bft)
08.03.2018 11:00 7,0 C 75 % 1007,3 hPa 0,0 l/m W-SW 0,75 h 539 W/m 20,5 km/h (4 Bft)
08.03.2018 12:00 7,4 C 70 % 1007,0 hPa 0,0 l/m W-SW 0,58 h 418 W/m 19,7 km/h (3 Bft)
08.03.2018 13:00 8,6 C 63 % 1006,3 hPa 0,0 l/m W-SW 1,00 h 526 W/m 21,6 km/h (4 Bft)
08.03.2018 14:00 9,0 C 56 % 1005,5 hPa 0,0 l/m W-SW 1,00 h 364 W/m 24,1 km/h (4 Bft)
08.03.2018 15:00 9,2 C 53 % 1004,8 hPa 0,0 l/m W-SW 1,00 h 283 W/m 22,6 km/h (4 Bft)
08.03.2018 16:00 9,0 C 51 % 1004,3 hPa 0,0 l/m W-SW 0,75 h 174 W/m 22,0 km/h (4 Bft)
08.03.2018 17:00 8,1 C 55 % 1004,4 hPa 0,0 l/m W-SW 0,00 h 46 W/m 9,7 km/h (2 Bft)
08.03.2018 18:00 7,1 C 59 % 1004,6 hPa 0,0 l/m W-SW 0,08 h 8 W/m 0,9 km/h (0 Bft)
08.03.2018 19:00 6,0 C 62 % 1005,1 hPa 0,0 l/m W-SW 0,00 h 0 W/m 7,9 km/h (2 Bft)
08.03.2018 20:00 6,5 C 59 % 1005,6 hPa 0,0 l/m SW 0,00 h 0 W/m 11,7 km/h (2 Bft)
08.03.2018 21:00 6,8 C 59 % 1006,5 hPa 0,0 l/m SW 0,00 h 0 W/m 14,1 km/h (3 Bft)
08.03.2018 22:00 6,6 C 62 % 1007,0 hPa 0,0 l/m SW 0,00 h 0 W/m 9,3 km/h (2 Bft)
08.03.2018 23:00 5,4 C 66 % 1007,3 hPa 0,0 l/m SW 0,00 h 0 W/m 10,4 km/h (2 Bft)
09.03.2018 00:00 5,2 C 68 % 1007,4 hPa 0,0 l/m SW 0,00 h 0 W/m 12,0 km/h (2 Bft)
09.03.2018 01:00 5,2 C 70 % 1007,6 hPa 0,0 l/m SW 0,00 h 0 W/m 13,2 km/h (3 Bft)
09.03.2018 02:00 5,1 C 72 % 1007,7 hPa 0,0 l/m SW 0,00 h 0 W/m 13,8 km/h (3 Bft)
09.03.2018 03:00 5,7 C 72 % 1007,7 hPa 0,0 l/m SW 0,00 h 0 W/m 13,8 km/h (3 Bft)
09.03.2018 04:00 5,5 C 74 % 1008,1 hPa 0,0 l/m SW 0,00 h 0 W/m 14,8 km/h (3 Bft)
09.03.2018 05:00 5,8 C 74 % 1008,3 hPa 0,0 l/m W-SW 0,00 h 0 W/m 15,7 km/h (3 Bft)
09.03.2018 06:00 5,8 C 73 % 1008,5 hPa 0,0 l/m SW 0,00 h 5 W/m 17,7 km/h (3 Bft)
09.03.2018 07:00 5,9 C 71 % 1008,8 hPa 0,0 l/m W-SW 0,00 h 23 W/m 19,2 km/h (3 Bft)
09.03.2018 08:00 6,7 C 69 % 1009,2 hPa 0,0 l/m W-SW 0,00 h 94 W/m 18,0 km/h (3 Bft)
09.03.2018 09:00 7,9 C 67 % 1009,2 hPa 0,0 l/m SW 0,33 h 239 W/m 16,9 km/h (3 Bft)
09.03.2018 10:00 9,1 C 61 % 1009,1 hPa 0,0 l/m W-SW 0,00 h 216 W/m 19,0 km/h (3 Bft)
09.03.2018 11:00 9,8 C 58 % 1009,1 hPa 0,0 l/m W-SW 0,17 h 275 W/m 17,3 km/h (3 Bft)
09.03.2018 12:00 10,4 C 57 % 1008,7 hPa 0,0 l/m SW 0,42 h 334 W/m 16,8 km/h (3 Bft)
09.03.2018 13:00 11,6 C 52 % 1008,2 hPa 0,0 l/m W-SW 0,58 h 353 W/m 21,2 km/h (4 Bft)
09.03.2018 14:00 11,6 C 51 % 1008,0 hPa 0,0 l/m W-SW 0,00 h 246 W/m 19,6 km/h (3 Bft)
09.03.2018 15:00 11,9 C 50 % 1007,7 hPa 0,0 l/m SW 0,33 h 235 W/m 18,4 km/h (3 Bft)
09.03.2018 16:00 11,0 C 56 % 1007,0 hPa 0,0 l/m SW 0,17 h 128 W/m 13,3 km/h (3 Bft)
09.03.2018 17:00 10,4 C 58 % 1006,8 hPa 0,0 l/m SW 0,00 h 49 W/m 8,4 km/h (2 Bft)
09.03.2018 18:00 9,9 C 57 % 1006,8 hPa 0,0 l/m SW 0,00 h 6 W/m 2,7 km/h (1 Bft)
09.03.2018 19:00 9,1 C 64 % 1006,9 hPa 0,0 l/m N 0,00 h 0 W/m 0,3 km/h (0 Bft)
09.03.2018 20:00 8,3 C 70 % 1006,7 hPa 0,0 l/m N 0,00 h 0 W/m 0,0 km/h (0 Bft)
09.03.2018 21:00 7,5 C 73 % 1006,5 hPa 0,0 l/m N 0,00 h 0 W/m 0,0 km/h (0 Bft)
09.03.2018 22:00 6,8 C 76 % 1006,6 hPa 0,0 l/m N 0,00 h 0 W/m 0,0 km/h (0 Bft)
09.03.2018 23:00 6,3 C 77 % 1006,3 hPa 0,0 l/m N 0,00 h 0 W/m 0,3 km/h (0 Bft)
10.03.2018 00:00 6,0 C 74 % 1006,1 hPa 0,0 l/m SW 0,00 h 0 W/m 4,8 km/h (1 Bft)
10.03.2018 01:00 6,1 C 73 % 1006,2 hPa 0,0 l/m N 0,00 h 0 W/m 0,3 km/h (0 Bft)
10.03.2018 02:00 5,4 C 75 % 1006,0 hPa 0,0 l/m N 0,00 h 0 W/m 0,0 km/h (0 Bft)
10.03.2018 03:00 4,8 C 78 % 1005,8 hPa 0,0 l/m N 0,00 h 0 W/m 0,0 km/h (0 Bft)
10.03.2018 04:00 4,8 C 80 % 1005,7 hPa 0,0 l/m N 0,00 h 0 W/m 0,0 km/h (0 Bft)
10.03.2018 05:00 5,1 C 80 % 1005,3 hPa 0,0 l/m N 0,00 h 0 W/m 0,4 km/h (0 Bft)
10.03.2018 06:00 5,6 C 82 % 1005,1 hPa 0,0 l/m SW 0,00 h 5 W/m 1,1 km/h (0 Bft)
10.03.2018 07:00 6,0 C 82 % 1005,1 hPa 0,0 l/m N 0,00 h 33 W/m 0,0 km/h (0 Bft)
10.03.2018 08:00 6,6 C 85 % 1005,5 hPa 0,2 l/m N 0,00 h 54 W/m 0,5 km/h (0 Bft)
10.03.2018 09:00 7,2 C 90 % 1005,6 hPa 0,4 l/m N 0,00 h 94 W/m 0,0 km/h (0 Bft)
10.03.2018 10:00 7,3 C 93 % 1005,8 hPa 0,4 l/m N 0,00 h 106 W/m 0,1 km/h (0 Bft)
10.03.2018 11:00 7,9 C 93 % 1006,0 hPa 0,6 l/m N 0,00 h 121 W/m 1,5 km/h (1 Bft)
10.03.2018 12:00 8,8 C 92 % 1005,4 hPa 0,0 l/m N 0,00 h 228 W/m 0,5 km/h (0 Bft)
10.03.2018 13:00 10,2 C 89 % 1004,7 hPa 0,0 l/m N 0,00 h 237 W/m 0,0 km/h (0 Bft)
10.03.2018 14:00 11,0 C 86 % 1004,7 hPa 0,2 l/m SW 0,00 h 167 W/m 3,6 km/h (1 Bft)
10.03.2018 15:00 10,9 C 83 % 1005,0 hPa 0,2 l/m SW 0,00 h 103 W/m 10,7 km/h (2 Bft)
10.03.2018 16:00 9,8 C 87 % 1004,8 hPa 0,0 l/m SW 0,00 h 48 W/m 6,6 km/h (2 Bft)
10.03.2018 17:00 9,3 C 89 % 1004,7 hPa 0,0 l/m N 0,00 h 21 W/m 0,0 km/h (0 Bft)
10.03.2018 18:00 8,9 C 89 % 1004,7 hPa 0,0 l/m SW 0,00 h 8 W/m 4,7 km/h (1 Bft)
10.03.2018 19:00 8,3 C 89 % 1004,7 hPa 0,0 l/m SW 0,00 h 0 W/m 4,3 km/h (1 Bft)
10.03.2018 20:00 8,0 C 90 % 1004,6 hPa 0,0 l/m N 0,00 h 0 W/m 0,0 km/h (0 Bft)
10.03.2018 21:00 7,0 C 90 % 1004,7 hPa 0,0 l/m N 0,00 h 0 W/m 0,0 km/h (0 Bft)
10.03.2018 22:00 6,0 C 91 % 1004,5 hPa 0,0 l/m N 0,00 h 0 W/m 0,0 km/h (0 Bft)
10.03.2018 23:00 5,8 C 93 % 1004,1 hPa 0,0 l/m N 0,00 h 0 W/m 0,0 km/h (0 Bft)
11.03.2018 00:00 5,6 C 93 % 1003,4 hPa 0,0 l/m N 0,00 h 0 W/m 0,0 km/h (0 Bft)
11.03.2018 01:00 5,2 C 94 % 1002,8 hPa 0,0 l/m N 0,00 h 0 W/m 0,0 km/h (0 Bft)
11.03.2018 02:00 4,8 C 94 % 1001,9 hPa 0,0 l/m N 0,00 h 0 W/m 0,0 km/h (0 Bft)
11.03.2018 03:00 3,7 C 93 % 1000,7 hPa 0,0 l/m N 0,00 h 0 W/m 0,0 km/h (0 Bft)
11.03.2018 04:00 3,2 C 94 % 999,9 hPa 0,0 l/m N 0,00 h 0 W/m 0,0 km/h (0 Bft)
11.03.2018 05:00 3,2 C 95 % 999,6 hPa 0,0 l/m W-SW 0,00 h 0 W/m 2,5 km/h (1 Bft)
11.03.2018 06:00 3,1 C 95 % 998,6 hPa 0,0 l/m W-SW 0,08 h 7 W/m 0,5 km/h (0 Bft)
11.03.2018 07:00 3,0 C 96 % 998,4 hPa 0,0 l/m N 0,00 h 46 W/m 0,5 km/h (0 Bft)
11.03.2018 08:00 4,4 C 97 % 998,0 hPa 0,0 l/m N 0,08 h 130 W/m 0,7 km/h (0 Bft)
11.03.2018 09:00 7,0 C 92 % 997,9 hPa 0,0 l/m W-SW 0,25 h 232 W/m 1,5 km/h (1 Bft)
11.03.2018 10:00 8,9 C 84 % 997,6 hPa 0,0 l/m N 0,00 h 211 W/m 0,7 km/h (0 Bft)
11.03.2018 11:00 9,7 C 85 % 997,0 hPa 0,0 l/m NW 0,00 h 211 W/m 7,4 km/h (2 Bft)
11.03.2018 12:00 10,3 C 85 % 996,6 hPa 0,0 l/m N-NW 0,00 h 195 W/m 11,6 km/h (2 Bft)
11.03.2018 13:00 10,4 C 82 % 995,9 hPa 0,0 l/m N 0,00 h 130 W/m 6,2 km/h (2 Bft)
11.03.2018 14:00 11,0 C 80 % 995,3 hPa 0,0 l/m N 0,00 h 150 W/m 1,3 km/h (1 Bft)
11.03.2018 15:00 11,6 C 79 % 995,1 hPa 0,0 l/m N 0,00 h 120 W/m 1,5 km/h (1 Bft)
11.03.2018 16:00 11,8 C 78 % 994,5 hPa 0,0 l/m N 0,00 h 83 W/m 0,4 km/h (0 Bft)
11.03.2018 17:00 11,2 C 81 % 994,5 hPa 0,0 l/m N 0,00 h 26 W/m 2,5 km/h (1 Bft)
11.03.2018 18:00 10,3 C 83 % 995,2 hPa 0,0 l/m O-SO 0,00 h 6 W/m 3,1 km/h (1 Bft)
11.03.2018 19:00 9,0 C 87 % 995,8 hPa 0,8 l/m N 0,00 h 0 W/m 0,1 km/h (0 Bft)
11.03.2018 20:00 8,1 C 90 % 995,3 hPa 0,2 l/m N 0,00 h 0 W/m 0,0 km/h (0 Bft)
11.03.2018 21:00 7,6 C 92 % 994,5 hPa 0,0 l/m N 0,00 h 0 W/m 0,0 km/h (0 Bft)
11.03.2018 22:00 6,9 C 93 % 994,0 hPa 0,0 l/m N 0,00 h 0 W/m 0,0 km/h (0 Bft)
11.03.2018 23:00 6,1 C 94 % 993,9 hPa 0,0 l/m N 0,00 h 0 W/m 0,0 km/h (0 Bft)
Min-Datum _ 06.03.18 09.03.18 06.03.18 - - - - 05.03.18
_ Min-Zeit 07:20 15:50 06:35 - - - - 00:00
Minimum _ -1,4 C 49 % 989,6 hPa - - - - 0,0 km/h (0 Bft)
Max-Datum _ 09.03.18 05.03.18 09.03.18 11.03.18 - 05.03.18 08.03.18 07.03.18
_ Max-Zeit 15:35 07:30 08:40 19:10 - 08:25 11:30 16:40
Maximum _ 12,2 C 100 % 1009,4 hPa 0,8 l/m - 0,08 h 786 W/m 41,8 km/h
W-SW (6 Bft)
Durchschnitt _ 5,5 C 83 % 1000,0 hPa #3,6 l/m SW #20:45 h 182 W/m 7,7 km/h (2 Bft)